Wind_Speed
34 35 34 32 30 27 25 23 22 20 18 17 17 16 14 13 12 11 10 9 7 6 5 4 4 3 3 2 2 2 2 2 1 1 1 2 3 4 5 6 7 8 9
35 36 36 35 33 30 28 26 24 22 21 19 18 17 16 14 13 13 12 10 9 8 7 6 5 5 4 3 3 3 3 3 3 2 2 3 4 5 5 6 7 8 9
36 37 38 37 35 33 30 28 27 25 23 21 20 19 17 16 15 14 14 12 11 10 9 8 7 6 5 5 4 4 4 4 4 4 3 4 4 5 6 6 7 8 10
38 38 40 40 38 36 33 31 29 28 25 24 22 21 19 18 17 16 15 14 13 12 10 9 8 8 7 6 6 5 5 5 5 5 5 4 5 6 6 7 8 9 10
41 40 41 42 41 38 36 33 32 30 28 26 24 23 22 20 19 18 17 16 15 13 12 11 10 9 8 8 7 6 6 6 6 6 6 6 6 6 7 8 9 10 11
45 42 43 44 43 41 39 36 34 32 30 28 27 25 24 22 20 19 19 18 16 15 14 13 12 11 10 9 8 8 8 8 7 7 7 7 7 7 8 9 9 10 11
47 45 45 46 46 44 42 39 36 34 32 31 29 27 26 24 22 21 20 20 18 17 16 15 14 13 12 11 10 10 9 9 9 9 9 9 9 9 9 10 11 12 13
49 48 48 48 48 47 44 42 39 37 35 33 32 30 28 26 24 23 22 21 20 18 17 16 15 14 13 12 11 11 11 10 10 10 10 10 10 11 11 11 12 13 14
51 50 51 51 50 49 47 45 42 39 37 36 34 32 30 28 27 25 24 23 22 20 19 18 17 16 15 14 13 12 12 12 12 12 12 12 12 12 13 13 14 14 15
52 52 52 53 53 52 50 47 44 42 40 39 37 34 32 30 29 27 25 24 23 22 21 20 19 18 16 15 15 14 13 13 13 13 14 14 14 14 14 15 15 16 17
53 54 54 55 54 54 52 50 47 45 43 41 39 37 34 32 30 29 27 26 25 24 23 22 20 19 18 17 17 16 15 15 15 15 15 16 16 16 16 17 17 18 19
53 55 56 56 55 56 55 52 50 47 45 43 41 39 36 34 32 31 29 28 27 26 25 23 22 21 20 19 19 18 17 17 17 17 17 17 17 18 18 18 19 20 21
55 55 56 57 56 56 57 55 53 50 48 45 43 41 39 36 35 33 31 30 29 28 26 25 24 23 22 21 21 20 19 19 19 19 19 19 19 19 20 20 21 21 22
56 57 57 58 56 55 56 56 55 53 50 48 46 43 41 38 36 35 33 32 31 29 28 27 26 25 24 23 23 22 21 21 21 21 21 21 21 21 22 22 23 23 24
57 58 59 59 58 56 56 57 57 55 53 50 48 45 43 40 39 37 35 34 33 31 30 28 27 27 26 25 25 24 23 23 22 22 23 23 23 23 24 24 25 25 26
56 57 59 59 58 56 55 54 55 57 55 53 50 47 45 43 41 39 37 36 34 33 32 30 29 28 27 27 27 26 25 25 25 24 24 25 25 25 26 26 27 27 28
57 58 57 59 59 57 55 53 53 56 57 55 52 50 47 45 43 41 39 38 36 35 34 32 31 30 29 29 28 27 27 27 26 26 26 27 27 27 28 28 29 29 30
56 57 57 56 57 57 57 53 53 55 57 56 54 51 49 47 45 43 41 40 38 37 35 34 33 32 31 30 30 29 29 29 28 28 28 28 29 29 30 30 30 31 32
56 56 56 56 56 56 57 54 53 53 55 56 55 53 51 49 47 45 43 42 41 39 37 36 35 34 33 32 31 30 30 31 30 30 30 30 30 31 31 31 32 32 32
56 54 54 54 54 54 54 54 52 51 53 56 55 54 52 50 48 46 45 44 43 41 40 39 37 36 34 33 32 32 32 32 32 32 32 32 32 32 32 32 32 32 32
52 51 52 54 52 50 52 52 51 50 50 54 55 54 53 51 49 48 46 46 45 43 41 41 39 38 36 35 34 34 34 33 33 34 34 34 33 33 33 33 33 33 33
48 49 50 50 48 48 49 49 47 47 48 51 54 54 53 52 50 49 48 47 45 43 43 42 41 39 37 36 36 35 35 35 35 35 35 35 35 34 34 34 33 33 33
43 44 48 49 48 46 45 46 47 47 48 49 51 52 52 52 52 51 50 48 47 45 44 43 41 40 38 37 37 37 37 36 36 36 36 36 35 34 33 33 33 33 33
37 39 41 43 45 46 44 44 45 46 47 48 49 49 50 51 52 52 50 49 48 46 44 44 43 42 39 38 37 37 37 37 37 36 36 35 35 34 34 34 34 34 34
34 34 35 38 40 40 41 43 42 42 43 44 46 46 45 45 47 48 49 49 48 47 46 44 43 42 40 39 38 37 37 37 37 37 36 36 36 36 35 35 35 35 36
29 31 33 36 36 37 37 39 41 40 39 41 42 43 43 44 45 46 48 48 47 47 45 44 43 42 41 41 39 40 39 38 39 38 37 36 35 35 35 35 35 36 37
Wind_Direction
235 235 236 236 236 237 238 239 239 238 238 239 237 236 237 240 242 245 244 244 243 244 245 243 241 239 238 232 220 214 216 227 245 262 302 340 350 353 355 356 358 0 1
237 236 235 236 236 236 237 237 237 237 237 238 237 236 237 239 241 243 243 243 241 243 245 244 242 242 241 241 238 233 233 239 249 259 280 313 332 339 342 345 349 352 354
238 237 235 235 235 235 235 236 236 236 236 236 236 236 237 238 240 243 244 244 243 243 244 245 246 245 241 241 244 243 244 245 251 258 272 295 311 323 330 335 340 344 346
240 238 237 235 234 234 234 234 235 236 236 235 235 235 236 237 240 243 245 245 243 243 243 244 245 245 244 243 245 248 250 252 255 261 270 284 298 310 320 326 332 337 339
242 238 237 235 234 234 233 233 233 234 235 235 234 234 235 236 239 242 244 245 244 243 243 243 244 245 245 244 247 251 253 256 257 262 270 280 291 302 312 318 324 329 332
243 239 236 235 234 233 233 233 233 233 234 234 234 234 234 235 237 241 244 244 244 244 244 243 244 244 245 246 249 252 254 256 259 262 269 276 285 296 304 310 316 321 324
244 240 236 235 234 233 232 232 232 232 233 234 234 233 234 235 237 239 243 243 243 244 244 244 244 244 246 248 250 253 254 256 260 264 268 274 282 290 296 303 308 313 317
242 240 236 235 234 233 232 231 231 231 232 233 234 233 233 235 237 238 241 242 243 244 244 245 244 245 246 249 251 253 255 257 260 264 268 273 280 286 291 297 303 307 312
240 239 237 234 233 232 231 230 230 230 231 232 233 233 233 234 236 238 239 241 242 243 244 246 246 246 247 250 252 253 256 259 262 264 267 271 277 283 288 294 298 303 307
239 237 236 234 233 232 231 230 230 230 230 231 231 232 232 233 235 237 239 241 242 243 244 246 247 248 249 251 253 255 257 260 263 266 268 272 276 281 285 290 295 299 302
237 236 234 232 231 230 229 229 229 229 230 230 231 232 232 233 235 238 240 241 242 243 245 247 248 250 251 252 254 256 258 259 262 266 270 273 276 280 283 287 292 296 299
236 234 232 230 229 229 228 228 227 228 229 230 231 232 233 233 235 238 240 241 242 243 245 247 249 251 252 253 255 256 258 259 262 267 270 273 276 279 282 286 290 294 297
234 232 230 228 227 227 227 227 227 227 228 230 231 232 232 233 235 238 240 242 243 244 245 247 249 252 254 255 256 257 259 261 263 267 270 273 276 279 282 285 289 292 295
231 229 227 225 225 224 225 225 226 226 227 229 230 231 232 234 236 237 239 242 243 244 244 246 250 252 254 255 256 257 259 261 263 266 270 272 275 278 281 284 287 291 294
227 226 225 223 224 224 225 225 226 225 226 227 229 230 231 233 235 237 239 241 243 244 245 247 250 253 254 255 257 258 260 262 264 267 270 273 275 278 281 284 287 290 293
225 224 223 221 221 222 223 224 224 224 225 226 228 229 230 232 234 237 239 241 243 244 245 247 250 252 254 256 258 259 260 263 265 267 269 273 275 278 281 283 286 289 292
222 221 220 220 220 220 221 223 223 223 224 224 226 228 229 231 234 236 238 240 242 243 245 247 249 252 254 257 258 260 262 263 265 267 269 273 275 278 281 283 286 288 291
219 220 219 218 220 220 219 221 221 222 222 223 224 226 228 230 232 234 237 239 242 243 244 247 250 252 254 256 258 261 263 265 266 268 271 273 275 278 281 283 285 288 290
218 219 219 216 219 219 218 221 222 224 223 221 223 225 227 229 231 233 236 239 241 242 244 247 249 252 254 256 259 261 264 266 268 270 272 274 276 278 280 283 286 288 290
216 216 217 214 216 218 218 222 223 224 224 222 222 224 225 228 230 233 235 238 240 242 245 247 249 252 254 257 260 262 265 268 270 272 274 275 278 279 281 284 287 289 291
214 213 213 214 215 216 216 219 221 223 224 223 222 223 225 227 230 232 235 239 241 242 244 246 250 252 254 257 260 262 265 268 270 272 274 275 277 279 282 285 286 288 291
213 212 212 212 213 215 214 216 220 222 224 223 223 224 226 227 229 231 235 238 240 242 245 248 252 252 254 257 260 263 264 266 268 270 273 274 276 279 282 285 287 289 293
212 211 211 210 212 212 212 215 218 220 223 224 225 226 227 229 231 234 236 238 240 243 246 249 252 253 255 257 260 262 263 266 269 271 273 274 277 280 283 285 287 291 294
212 211 210 208 210 212 214 216 218 220 223 226 227 228 230 232 234 236 238 239 242 245 246 249 252 254 255 257 259 262 263 266 269 270 271 273 276 279 282 284 288 291 295
207 206 206 205 206 210 212 216 218 219 221 224 227 229 231 232 234 237 239 241 243 245 247 249 252 254 255 257 259 261 264 267 269 271 270 271 275 278 281 284 288 290 293
205 204 204 205 209 210 213 216 218 219 221 225 228 229 232 234 236 239 242 243 245 248 250 251 253 255 258 259 261 263 264 266 270 271 271 271 273 276 279 283 286 289 292
Height
5846 5848 5851 5854 5856 5859 5861 5864 5866 5868 5869 5870 5871 5872 5872 5873 5874 5875 5876 5876 5877 5877 5877 5877 5877 5877 5877 5877 5878 5878 5878 5878 5879 5879 5879 5879 5879 5879 5879 5878 5877 5877 5876
5841 5844 5846 5849 5852 5855 5858 5860 5863 5865 5866 5867 5868 5869 5870 5872 5873 5874 5874 5875 5875 5876 5876 5876 5876 5877 5877 5877 5877 5877 5877 5878 5878 5878 5879 5879 5879 5878 5878 5878 5877 5876 5875
5835 5838 5841 5844 5847 5850 5853 5856 5859 5861 5863 5864 5866 5867 5868 5869 5871 5872 5873 5873 5874 5874 5875 5875 5875 5876 5876 5876 5876 5876 5877 5877 5877 5878 5878 5878 5878 5878 5877 5877 5876 5876 5875
5829 5832 5835 5839 5842 5845 5849 5852 5854 5857 5859 5861 5863 5864 5865 5867 5868 5869 5871 5872 5872 5873 5873 5874 5874 5874 5875 5875 5875 5876 5876 5876 5876 5877 5877 5877 5877 5877 5876 5876 5876 5875 5874
5821 5826 5829 5833 5836 5840 5844 5847 5850 5853 5855 5857 5859 5861 5862 5864 5865 5867 5868 5870 5870 5871 5872 5872 5873 5873 5873 5874 5874 5874 5875 5875 5875 5876 5876 5876 5876 5876 5875 5875 5874 5874 5873
5813 5818 5822 5826 5830 5834 5838 5842 5845 5848 5851 5853 5855 5857 5859 5861 5862 5864 5866 5867 5868 5869 5870 5870 5871 5871 5872 5872 5873 5873 5873 5874 5874 5874 5874 5875 5874 5874 5874 5874 5873 5872 5872
5804 5810 5815 5819 5823 5828 5832 5836 5840 5843 5846 5849 5851 5853 5855 5857 5859 5861 5862 5864 5865 5867 5867 5868 5869 5869 5870 5870 5871 5871 5872 5872 5872 5873 5873 5873 5873 5873 5872 5872 5871 5871 5870
5795 5801 5806 5811 5816 5821 5825 5830 5834 5837 5841 5844 5846 5849 5851 5853 5855 5857 5859 5861 5862 5864 5865 5866 5866 5867 5868 5868 5869 5869 5870 5870 5870 5871 5871 5871 5871 5871 5870 5870 5870 5869 5868
5786 5792 5797 5803 5808 5813 5819 5823 5827 5831 5835 5838 5841 5844 5847 5849 5851 5854 5855 5857 5859 5860 5862 5863 5864 5865 5865 5866 5866 5867 5867 5868 5868 5868 5868 5868 5868 5868 5868 5868 5867 5866 5866
5776 5782 5788 5793 5799 5805 5811 5816 5820 5825 5828 5832 5836 5839 5842 5844 5847 5849 5852 5853 5855 5857 5858 5860 5861 5862 5862 5863 5864 5864 5865 5865 5866 5866 5866 5866 5866 5866 5865 5865 5864 5864 5863
5766 5772 5778 5784 5790 5796 5802 5808 5813 5818 5822 5825 5830 5833 5836 5839 5842 5845 5847 5849 5851 5853 5855 5856 5857 5858 5859 5860 5861 5861 5862 5862 5863 5863 5863 5863 5863 5863 5863 5862 5861 5861 5860
5756 5762 5768 5775 5780 5786 5793 5799 5805 5810 5815 5819 5824 5828 5831 5834 5837 5840 5843 5845 5847 5849 5850 5852 5854 5855 5856 5857 5857 5858 5859 5859 5860 5860 5860 5860 5860 5860 5859 5859 5858 5857 5857
5745 5752 5758 5765 5771 5776 5784 5791 5797 5803 5808 5812 5817 5821 5825 5829 5832 5835 5838 5840 5842 5844 5846 5848 5849 5851 5852 5853 5854 5854 5855 5856 5856 5856 5856 5856 5856 5856 5856 5855 5854 5854 5853
5734 5741 5748 5755 5762 5767 5774 5781 5788 5795 5800 5805 5810 5815 5819 5823 5827 5830 5832 5835 5837 5840 5842 5843 5845 5846 5848 5849 5850 5850 5851 5852 5852 5852 5852 5852 5852 5852 5851 5851 5850 5849 5848
5723 5730 5738 5745 5752 5758 5765 5772 5779 5786 5792 5798 5803 5808 5813 5817 5821 5824 5827 5830 5832 5834 5837 5838 5840 5841 5843 5844 5845 5846 5846 5847 5848 5848 5848 5848 5848 5847 5847 5846 5845 5844 5843
5713 5720 5728 5736 5743 5748 5755 5762 5770 5776 5783 5789 5795 5801 5806 5810 5814 5817 5821 5824 5826 5829 5831 5833 5834 5836 5838 5839 5840 5841 5842 5842 5843 5843 5843 5843 5843 5842 5842 5841 5840 5839 5838
5701 5708 5717 5726 5733 5739 5747 5754 5761 5767 5774 5781 5787 5793 5798 5803 5807 5811 5815 5818 5820 5823 5825 5827 5829 5831 5832 5833 5835 5836 5836 5837 5837 5838 5838 5838 5837 5837 5836 5835 5834 5833 5832
5690 5699 5708 5717 5723 5731 5739 5746 5752 5758 5765 5772 5779 5785 5790 5795 5800 5804 5808 5811 5814 5817 5819 5821 5823 5825 5826 5828 5829 5830 5831 5831 5832 5832 5832 5832 5832 5831 5831 5829 5828 5827 5826
5681 5691 5699 5708 5715 5723 5730 5737 5744 5750 5757 5764 5770 5776 5782 5787 5792 5796 5801 5804 5807 5810 5812 5815 5817 5819 5820 5822 5823 5824 5825 5825 5826 5826 5826 5826 5826 5825 5824 5823 5822 5821 5820
5672 5682 5690 5700 5707 5715 5722 5729 5736 5742 5749 5755 5761 5768 5773 5779 5784 5789 5793 5797 5800 5803 5805 5808 5810 5812 5814 5815 5816 5817 5818 5819 5819 5820 5819 5819 5819 5818 5818 5817 5816 5814 5813
5663 5673 5682 5691 5700 5707 5715 5722 5728 5735 5741 5748 5754 5760 5765 5771 5776 5781 5785 5789 5792 5795 5798 5801 5803 5805 5806 5808 5810 5811 5812 5812 5813 5813 5812 5812 5812 5811 5810 5809 5808 5807 5806
5657 5666 5675 5685 5693 5701 5709 5716 5722 5729 5735 5742 5747 5752 5758 5763 5768 5773 5777 5781 5784 5787 5790 5793 5795 5797 5799 5801 5802 5803 5804 5805 5805 5805 5805 5804 5804 5804 5803 5802 5801 5800 5799
5652 5660 5669 5678 5687 5695 5702 5709 5715 5722 5728 5734 5739 5745 5750 5755 5760 5765 5769 5773 5776 5779 5782 5785 5787 5789 5791 5793 5794 5795 5796 5797 5798 5798 5797 5797 5796 5796 5795 5794 5793 5792 5791
5648 5657 5665 5674 5682 5690 5697 5703 5710 5716 5723 5728 5733 5738 5743 5748 5752 5756 5761 5764 5768 5771 5774 5777 5779 5782 5783 5785 5786 5787 5788 5788 5789 5790 5790 5789 5789 5788 5788 5787 5785 5784 5783
5645 5654 5662 5670 5678 5685 5692 5698 5704 5711 5717 5722 5727 5732 5736 5741 5745 5749 5753 5757 5760 5763 5766 5769 5771 5773 5775 5776 5777 5778 5779 5780 5780 5781 5782 5781 5781 5780 5779 5778 5777 5776 5774
5644 5651 5658 5666 5674 5681 5688 5694 5699 5705 5711 5716 5721 5726 5730 5734 5738 5741 5745 5749 5752 5755 5758 5760 5763 5765 5767 5768 5769 5770 5770 5771 5772 5772 5772 5772 5772 5771 5770 5769 5768 5767 5765